Location: Wiler
(46.4041°N, 7.7840°E)
Time: 08:44:25
(UTC+00:00)

Cosmos 2366 rocket - Pass Details

Date: 09 April 2020
Orbit: 956 x 996 km, 82.9° (Epoch: 01 June)

Event Time Altitude Azimuth Distance (km) Brightness Sun altitude
Rises 19:36:07 0° 355° (N) 3,647 7.5 -14.8°
Reaches altitude 10° 19:38:44 10° 1° (N) 2,697 6.7 -15.2°
Maximum altitude 19:44:40 48° 75° (ENE) 1,236 4.3 -16.1°
Enters shadow 19:48:09 24° 138° (SE) 1,876 4.9 -16.6°
